Weather History for Thompson, MB

Change the Weather History Date:

Friday, November 2, 2012

  Actual Average Record
Temperature  
Mean Temperature 9 °F -  
Max Temperature 20 °F 18 °F 48 °F (2010)
Min Temperature -2 °F 3 °F -2 °F (1996)
Degree Days  
Heating Degree Days 56    
Moisture  
Dew Point 6 °F    
Average Humidity 84    
Maximum Humidity 100    
Minimum Humidity 8    
Precipitation  
Precipitation 0.00 in 0.04 in - ()
Sea Level Pressure  
Sea Level Pressure 30.38 in    
Wind  
Wind Speed 2 mph ()    
Max Wind Speed 5 mph    
Max Gust Speed -    
Visibility 15.0 miles    
Events Snow    
Averages and records for this station are not official NWS values.
T = Trace of Precipitation, MM = Missing Value Source: Averaged Metar Reports

Daily Weather History Graph

Daily Weather History Graph

Search for Another Location

Airport:

Trip Planner

Search our weather history database for the weather conditions in past years. The results will help you decide how hot, cold, wet, or windy it might be!

Date:

Astronomy

Nov. 02, 2012 Rise Set
Actual Time 8:41 AM CDT 5:48 PM CDT
Civil Twilight 8:01 AM CDT 6:27 PM CDT
Nautical Twilight 7:17 AM CDT 7:11 PM CDT
Astronomical Twilight 6:34 AM CDT 7:54 PM CDT
Moon 8:12 PM CDT (11/2) 12:27 PM CDT (11/2)
Length of Visible Light 10h 26m
Length of Day
9h 06m
Waning Gibbous, 87% of the Moon is Illuminated
Nov 2
Waning Gibbous
Nov 6
Last Quarter
Nov 13
New
Nov 20
First Quarter
Nov 28
Full

Hourly Weather History & Observations

Time (CDT) Temp. Windchill Dew Point Humidity Pressure Visibility Wind Dir Wind Speed Gust Speed Precip Events Conditions
12:00 AM 1.4 °F -6.2 °F -4.0 °F 78% 30.42 in 15.0 mi North 3.5 mph - N/A   Partly Cloudy
1:00 AM 0 °F - -5 °F 72% 30.43 in 15 mi Calm Calm - -   Clear
1:00 AM -0.4 °F - -4.0 °F 85% 30.43 in 15.0 mi Calm Calm - N/A   Partly Cloudy
2:00 AM -0.4 °F - -5.8 °F 78% 30.43 in 15.0 mi Calm Calm - N/A   Partly Cloudy
3:00 AM 1.4 °F - -2.2 °F 85% 30.43 in 15.0 mi NE 2.3 mph - N/A   Scattered Clouds
4:00 AM 60.8 °F - -0.4 °F 8% 30.39 in 15.0 mi Calm Calm - N/A   Scattered Clouds
5:00 AM 5.0 °F - 1.4 °F 85% 30.39 in 15.0 mi NE 2.3 mph - N/A   Scattered Clouds
6:00 AM 3.2 °F -4.2 °F -0.4 °F 85% 30.38 in 15.0 mi NE 3.5 mph - N/A   Scattered Clouds
7:00 AM 4 °F - -0 °F 75% 30.41 in 15 mi ENE 2.3 mph - -   Clear
7:00 AM 3.2 °F -4.2 °F -0.4 °F 85% 30.41 in 15.0 mi East 3.5 mph - N/A   Scattered Clouds
8:00 AM 1.4 °F - -2.2 °F 85% 30.42 in 15.0 mi Calm Calm - N/A   Mostly Cloudy
9:00 AM 6.8 °F - 3.2 °F 85% 30.41 in 15.0 mi East 2.3 mph - N/A   Mostly Cloudy
10:00 AM 8.6 °F 2.0 °F 6.8 °F 92% 30.42 in 15.0 mi ESE 3.5 mph - N/A   Mostly Cloudy
11:00 AM 8.6 °F 2.0 °F 8.6 °F 100% 30.41 in 15.0 mi East 3.5 mph - N/A   Overcast
11:13 AM - - - N/A% - 15.0 mi ESE 3.5 mph - N/A   Unknown
12:00 PM 12.2 °F 4.3 °F 10.4 °F 92% 30.40 in 15.0 mi ESE 4.6 mph - N/A Snow Light Snow
1:00 PM 13 °F - 11 °F 87% 30.39 in 15 mi SE 2.3 mph - - Snow Light Snow
1:00 PM 12.2 °F - 10.4 °F 92% 30.39 in 15.0 mi Calm Calm - N/A Snow Light Snow
2:00 PM 14.0 °F - 12.2 °F 93% 30.38 in 15.0 mi NE 2.3 mph - N/A Snow Light Snow
3:00 PM 17.6 °F 12.3 °F 12.2 °F 79% 30.37 in 15.0 mi SSE 3.5 mph - N/A   Mostly Cloudy
4:00 PM 19.4 °F 14.3 °F 12.2 °F 74% 30.32 in 15.0 mi South 3.5 mph - N/A   Mostly Cloudy
5:00 PM 17.6 °F 12.3 °F 12.2 °F 79% 30.32 in 15.0 mi South 3.5 mph - N/A   Mostly Cloudy
6:00 PM 15.8 °F 8.6 °F 14.0 °F 93% 30.30 in 15.0 mi SE 4.6 mph - N/A   Overcast
7:00 PM 16 °F - 14 °F 86% 30.34 in 15 mi SE 4.6 mph - -   Partly Cloudy
7:00 PM 15.8 °F 10.2 °F 14.0 °F 93% 30.34 in 15.0 mi SE 3.5 mph - N/A   Overcast
8:00 PM 15.8 °F - 14.0 °F 93% 30.35 in 15.0 mi Calm Calm - N/A   Overcast
9:00 PM 12.2 °F - 10.4 °F 92% 30.35 in 15.0 mi Calm Calm - N/A   Mostly Cloudy
10:00 PM 10.4 °F 4.0 °F 8.6 °F 92% 30.35 in 15.0 mi SE 3.5 mph - N/A   Mostly Cloudy
11:00 PM 14.0 °F - 14.0 °F 100% 30.34 in 15.0 mi Calm Calm - N/A   Mostly Cloudy